Regional Weather Roundup
Issued by NWS

Home | Current Version | Previous Version | Graphics & Text | Print | Product List | Glossary On
Versions: 1 2 3 4 5 6 7 8 9 10 11 12 13 14 15 16 17 18 19 20 21 22 23 24 25 26 27 28 29 30 31 32 33 34 35 36 37 38 39 40 41 42 43 44 45 46 47 48 49 50
000
ASUS43 KMKX 221711
RWRWI

WISCONSIN REGIONAL WEATHER ROUNDUP
NATIONAL WEATHER SERVICE MILWAUKEE/SULLIVAN WI
1200 PM CDT TUE AUG 22 2017

NOTE: "FAIR" INDICATES FEW OR NO CLOUDS BELOW 12,000 FEET WITH NO
SIGNIFICANT WEATHER AND/OR OBSTRUCTIONS TO VISIBILITY.

WIZ001-002-006>008-014>016-023>028-221800-
NORTHWEST WISCONSIN

CITY           SKY/WX    TMP DP  RH WIND       PRES   REMARKS
SUPERIOR ARPT    N/A     69  54  59 W18G26    29.94S
ASHLAND        SUNNY     69  52  54 W17G24    29.91F
HAYWARD        MOSUNNY   68  49  50 W9G16     29.96S
SIREN          SUNNY     70  48  46 W15       29.99F
CUMBERLAND     SUNNY     64  50  59 NW14G21   30.00S
RICE LAKE      SUNNY     68  51  54 W15G21    30.01S
CHETEK         MOSUNNY   69  52  55 NW13G21   29.99S
LADYSMITH      SUNNY     68  51  54 NW13G20   29.99R
EAU CLAIRE     SUNNY     70  50  49 NW13G22   29.99R
MENOMONIE      MOSUNNY   68  52  55 W16G22    30.01S
NEW RICHMOND   SUNNY     69  50  51 W15       30.03S
OSCEOLA        SUNNY     69  51  52 W10       30.05S
$$

WIZ003>005-009-010-017-018-221800-
NORTH CENTRAL WISCONSIN

CITY           SKY/WX    TMP DP  RH WIND       PRES   REMARKS
MANITOWISH WTR MOSUNNY   65  51  59 NW16      29.90F
ARBOR VITAE    MOSUNNY   64  50  60 NW15G22   29.91S
WOODRUFF       MOSUNNY   64  50  60 NW15G22   29.91S
RHINELANDER    MOSUNNY   65  48  54 NW14G23   29.92R
EAGLE RIVER    MOSUNNY   64  47  52 NW13G29   29.89S
LAND O LAKES   MOSUNNY   64  48  56 NW14G20   29.90R
PHILLIPS       PTSUNNY   65  51  59 NW14      29.94R
TOMAHAWK         N/A     65  48  54 W17G25    29.94R
MEDFORD        PTSUNNY   65  49  56 NW15G30   29.95S
MERRILL        MOSUNNY   66  52  59 NW14G21   29.93R
$$

WIZ029-030-035-036-043>047-221800-
CENTRAL WISCONSIN

CITY           SKY/WX    TMP DP  RH WIND       PRES   REMARKS
WAUSAU         MOSUNNY   68  48  48 NW20G28   29.91R
MOSINEE        PTSUNNY   66  52  59 W16G23    29.94R
MARSHFIELD     MOSUNNY   69  48  47 NW18G24   29.95R
STEVENS POINT  PTSUNNY   66  49  54 W12G21    29.93S
WAUPACA        MOSUNNY   74  50  42 NW10G25   29.90S
WAUTOMA        PTSUNNY   72  52  49 NW18G24   29.92R
WISC RAPIDS    MOSUNNY   71  52  50 NW14      29.95R
CAMP DOUGLAS   MOSUNNY   72  54  53 NW13G24   29.95R
$$

WIZ011>013-019>022-031-037>040-048>050-221800-
NORTHEAST WISCONSIN

CITY           SKY/WX    TMP DP  RH WIND       PRES   REMARKS
ANTIGO         MOSUNNY   65  50  58 NW16G25   29.90S
SHAWANO        MOSUNNY   72  52  50 W16       29.87S
OCONTO         MOSUNNY   72  52  49 W13G20    29.84R
STURGEON BAY   SUNNY     69  55  60 NW21G26   29.83
GREEN BAY      MOSUNNY   71  56  58 NW14G29   29.86R
MANITOWOC      MOSUNNY   70  54  56 NW20      29.85R
APPLETON       PTSUNNY   72  48  43 NW20      29.88R
CLINTONVILLE   MOSUNNY   70  48  46 NW14G23   29.88F
OSHKOSH        MOSUNNY   71  53  52 NW17G25   29.88R
$$

WIZ032>034-041-042-053>061-221800-
SOUTHWEST WISCONSIN

CITY           SKY/WX    TMP DP  RH WIND       PRES   REMARKS
LA CROSSE      SUNNY     74  51  44 NW16      29.98S
SPARTA         MOSUNNY   70  53  55 NW12      29.98S
VIROQUA        MOSUNNY   68  55  64 NW13G22   30.00R
BOSCOBEL       MOSUNNY   75  53  46 NW15G24   29.98R
PRAIRIE DU CHI MOSUNNY   73  50  45 NW12G23   30.00R
PLATTEVILLE    MOSUNNY   72  58  62 NW13G22   29.98S
$$

WIZ056-057-062-063-064-067-068-221800-
SOUTH CENTRAL WISCONSIN

CITY           SKY/WX    TMP DP  RH WIND       PRES   REMARKS
REEDSBURG      MOSUNNY   73  53  48 NW14G21   29.95R
BARABOO/DELLS  MOSUNNY   71  50  46 NW14G22   29.95R
LONE ROCK      MOSUNNY   74  56  53 W17       29.95R
MINERAL POINT  MOSUNNY   72  55  56 NW13      29.97S
MADISON        PTSUNNY   73  55  53 N14G24    29.93R
MIDDLETON      PTSUNNY   72  56  56 NW12G18   29.94R
WATERTOWN      MOSUNNY   73  58  60 NW16G22   29.90R
MONROE         MOSUNNY   73  54  49 NW12G24   29.95R
JANESVILLE     MOSUNNY   75  59  57 NW18G25   29.91R
$$

WIZ051-052-058>065-066-070>072-221800-
SOUTHEAST WISCONSIN

CITY           SKY/WX    TMP DP  RH WIND       PRES   REMARKS
MILWAUKEE      PTSUNNY   79  57  46 W16G25    29.86R HX  80
WAUKESHA       PTSUNNY   73  55  53 W21       29.90R
MILWAUKEE/TIMM PTSUNNY   75  55  50 W17G25    29.87R
RACINE         MOSUNNY   76  60  57 NW15G24   29.88R
KENOSHA        MOSUNNY   77  60  55 W16G24    29.88R
FOND DU LAC    MOSUNNY   73  53  49 NW16G22   29.89R
SHEBOYGAN      MOSUNNY   72  59  63 NW15G24   29.86R
WEST BEND      MOSUNNY   72  55  56 NW16      29.88R
JUNEAU         MOSUNNY   70  53  55 W7G22     29.92R
$$

LSZ147-162-221800-
LAKE SUPERIOR

STATION/POSITION TIME  TEMP    WIND        PRES    WAVE
                       AIR SEA DIR/SP/G            HT/PER
                 (UTC) (F)     (DEG/KT/KT) (MB)    (FT/S)
W MID LAKE BUOY  1650   61 60  270/ 17/ 21 1010.0R   4/ 5
DEVILS ISLAND    1700   62     250/ 20/ 24 1011.7S
SAXON HARBOR     1630   65     300/  9/ 17 1012.2S
$$

LMZ867-665-643>646-221800-
LAKE MICHIGAN

STATION/POSITION TIME  TEMP    WIND        PRES    WAVE
                       AIR SEA DIR/SP/G            HT/PER
                 (UTC) (F)     (DEG/KT/KT) (MB)    (FT/S)
S GREEN BAY BUOY 1700   69 71  280/ 16/ 21 1010.3
N MID LAKE BUOY  1650   65 67  290/ 19/ 23 1008.4R   4/ 4
NORTHPORT PIER   1640   67     300/ 11/ 21 1008.8S
KEWAUNEE LAKESHO 1648   70     310/  8/ 18 1009.5R
SHEBOYGAN LAKESH 1700   70     290/ 19/ 22 1010.4R
PORT WASHINGTON  1630   75     300/ 12/ 18 1011.5R
ATWATER BUOY     1609   71 65  280/ 14/ 19 1011.2R
MILWAUKEE LAKESH 1650   74     300/ 16/ 20   N/A
S MID LAKE BUOY  1650   70 71  310/ 17/ 19 1010.6R   4/ 5
KENOSHA   LAKESH 1700   76     300/ 15/ 24 1010.8
$$

TC  - TEMPERATURE IN CELSIUS
VSB - VISIBILITY IN STATUTE MILES
WCI - WIND CHILL INDEX
HX  - HEAT INDEX





USA.gov is the U.S. government's official web portal to all federal, state and local government web resources and services.